Elbow Lake, MN

12:05 PM CST on February 19, 2018 (GMT -0600)
Elbow Lake

Weather History for KY63 - March, 2014

Change the Weather History Date:

Monday, March 17, 2014

  Actual Average (KFFM) Record (KFFM)
Temperature  
Mean Temperature 34 °F -  
Max Temperature 41 °F 37 °F 75 °F (2012)
Min Temperature 27 °F 17 °F -13 °F (1993)
Degree Days  
Heating Degree Days 31    
Moisture  
Dew Point 26 °F    
Average Humidity 73    
Maximum Humidity 89    
Minimum Humidity 60    
Precipitation  
Precipitation 0.00 in - - ()
Sea Level Pressure  
Sea Level Pressure 29.55 in    
Wind  
Wind Speed 15 mph (SE)    
Max Wind Speed 26 mph    
Max Gust Speed 32 mph    
Visibility 10 miles    
Events Snow    
Averages and records for this station are not official NWS values.
T = Trace of Precipitation, MM = Missing Value Source: NWS Daily Summary

Daily Weather History Graph

Daily Weather History Graph

Search for Another Location

Airport or City:

Trip Planner

Search our weather history database for the weather conditions in past years. The results will help you decide how hot, cold, wet, or windy it might be!

Date:

Astronomy

Mar. 17, 2014 Rise Set
Actual Time 7:32 AM CDT 7:32 PM CDT
Civil Twilight 7:02 AM CDT 8:02 PM CDT
Nautical Twilight 6:28 AM CDT 8:37 PM CDT
Astronomical Twilight 5:52 AM CDT 9:13 PM CDT
Moon 8:56 PM CDT (3/17) 7:44 AM CDT (3/17)
Length of Visible Light 12h 59m
Length of Day
11h 59m
Full, 99% of the Moon is Illuminated
Mar 17
Full
Mar 23
Last Quarter
Mar 30
New
Apr 7
First Quarter
Apr 15
Full

Hourly Weather History & Observations

Time (CDT) Temp. Windchill Dew Point Humidity Pressure Visibility Wind Dir Wind Speed Gust Speed Precip Events Conditions
12:16 AM 27.1 °F 11.8 °F 19.8 °F 74% 29.77 in 10.0 mi SSE 26.5 mph 32.2 mph N/A   Scattered Clouds
12:37 AM 27.1 °F 13.8 °F 19.8 °F 74% 29.75 in 10.0 mi South 19.6 mph 31.1 mph N/A   Clear
12:57 AM 27.0 °F 12.5 °F 20.3 °F 76% 29.73 in 10.0 mi SSE 23.0 mph - N/A   Clear
1:16 AM 27.5 °F 14.2 °F 20.5 °F 75% 29.73 in 10.0 mi South 19.6 mph 25.3 mph N/A   Scattered Clouds
1:37 AM 27.5 °F 14.2 °F 20.5 °F 75% 29.71 in 10.0 mi SSE 19.6 mph - N/A   Scattered Clouds
1:56 AM 28.0 °F 14.3 °F 20.5 °F 73% 29.69 in 10.0 mi SSE 21.9 mph 26.5 mph N/A   Clear
2:16 AM 28.0 °F 14.6 °F 20.3 °F 73% 29.68 in 10.0 mi SSE 20.7 mph - N/A   Clear
2:37 AM 27.5 °F 13.9 °F 20.3 °F 74% 29.68 in 10.0 mi SSE 20.7 mph 25.3 mph N/A   Clear
2:56 AM 27.9 °F 15.1 °F 20.3 °F 73% 29.67 in 10.0 mi SSE 18.4 mph - N/A   Clear
3:17 AM 28.2 °F 16.3 °F 20.3 °F 72% 29.65 in 10.0 mi SSE 16.1 mph 24.2 mph N/A   Clear
3:37 AM 28.4 °F 16.6 °F 20.1 °F 71% 29.64 in 10.0 mi SSE 16.1 mph - N/A   Scattered Clouds
3:56 AM 28.0 °F 17.0 °F 20.3 °F 73% 29.62 in 10.0 mi SSE 13.8 mph - N/A   Scattered Clouds
4:17 AM 28.0 °F 16.5 °F 20.3 °F 73% 29.61 in 10.0 mi SSE 15.0 mph - N/A   Clear
4:37 AM 28.2 °F 16.8 °F 20.3 °F 72% 29.60 in 10.0 mi SSE 15.0 mph - N/A   Clear
4:56 AM 28.4 °F 18.0 °F 20.7 °F 73% 29.60 in 10.0 mi SSE 12.7 mph - N/A   Scattered Clouds
5:17 AM 28.4 °F 19.7 °F 20.7 °F 73% 29.59 in 10.0 mi SSE 9.2 mph - N/A   Mostly Cloudy
5:37 AM 28.6 °F 18.7 °F 21.0 °F 73% 29.58 in 10.0 mi SSE 11.5 mph - N/A   Overcast
5:56 AM 28.9 °F 19.2 °F 21.4 °F 73% 29.57 in 10.0 mi SSE 11.5 mph - N/A   Overcast
6:17 AM 29.1 °F 18.4 °F 22.6 °F 77% 29.55 in 10.0 mi SSE 13.8 mph - N/A   Overcast
6:37 AM 29.1 °F 18.9 °F 22.8 °F 77% 29.54 in 10.0 mi SSE 12.7 mph - N/A   Mostly Cloudy
6:57 AM 29.1 °F 18.4 °F 23.0 °F 78% 29.52 in 10.0 mi SSE 13.8 mph - N/A   Mostly Cloudy
7:17 AM 29.3 °F 18.6 °F 23.5 °F 79% 29.51 in 10.0 mi SSE 13.8 mph - N/A   Mostly Cloudy
7:37 AM 29.3 °F 19.6 °F 23.9 °F 80% 29.52 in 10.0 mi SSE 11.5 mph - N/A   Scattered Clouds
7:57 AM 29.5 °F 21.1 °F 23.9 °F 80% 29.53 in 10.0 mi SSE 9.2 mph - N/A   Clear
8:17 AM 29.7 °F 20.7 °F 24.3 °F 80% 29.53 in 10.0 mi SSE 10.4 mph - N/A   Clear
8:36 AM 30.2 °F 20.8 °F 24.6 °F 80% 29.52 in 10.0 mi SSE 11.5 mph - N/A   Scattered Clouds
8:57 AM 30.7 °F 22.0 °F 24.8 °F 79% 29.52 in 10.0 mi SSE 10.4 mph - N/A   Clear
9:17 AM 31.6 °F 22.1 °F 25.3 °F 78% 29.50 in 10.0 mi SSE 12.7 mph - N/A   Scattered Clouds
9:36 AM 32.0 °F 21.6 °F 24.8 °F 75% 29.49 in 10.0 mi SSE 15.0 mph 19.6 mph N/A   Scattered Clouds
9:57 AM 32.5 °F 22.7 °F 25.0 °F 74% 29.48 in 10.0 mi SSE 13.8 mph - N/A   Scattered Clouds
10:17 AM 34.0 °F 25.0 °F 25.5 °F 71% 29.49 in 10.0 mi SSE 12.7 mph - N/A   Scattered Clouds
10:36 AM 35.1 °F 25.9 °F 25.5 °F 68% 29.49 in 10.0 mi South 13.8 mph - N/A   Mostly Cloudy
10:57 AM 35.6 °F 27.5 °F 25.7 °F 67% 29.49 in 10.0 mi South 11.5 mph - N/A   Overcast
11:17 AM 36.3 °F 28.4 °F 26.6 °F 68% 29.49 in 10.0 mi SSE 11.5 mph - N/A   Overcast
11:37 AM 37.8 °F 30.2 °F 26.6 °F 64% 29.48 in 10.0 mi SSE 11.5 mph - N/A   Overcast
11:57 AM 38.8 °F 32.1 °F 27.0 °F 62% 29.48 in 10.0 mi SSE 10.4 mph - N/A   Mostly Cloudy
12:17 PM 39.4 °F 33.8 °F 27.3 °F 62% 29.48 in 10.0 mi SSE 8.1 mph - N/A   Scattered Clouds
12:37 PM 38.7 °F 34.3 °F 27.1 °F 63% 29.47 in 10.0 mi SE 5.8 mph - N/A   Scattered Clouds
12:57 PM 39.6 °F 34.7 °F 27.5 °F 62% 29.47 in 10.0 mi SSE 6.9 mph - N/A   Clear
1:17 PM 40.1 °F 34.1 °F 28.4 °F 63% 29.47 in 10.0 mi SSE 9.2 mph - N/A   Scattered Clouds
1:37 PM 39.7 °F 34.3 °F 28.4 °F 64% 29.48 in 10.0 mi SE 8.1 mph - N/A   Mostly Cloudy
1:57 PM 40.1 °F 35.3 °F 28.2 °F 63% 29.47 in 10.0 mi SE 6.9 mph - N/A   Mostly Cloudy
2:16 PM 40.6 °F 35.4 °F 28.6 °F 62% 29.47 in 10.0 mi ESE 8.1 mph - N/A   Scattered Clouds
2:37 PM 41.0 °F 36.4 °F 28.2 °F 60% 29.47 in 10.0 mi SE 6.9 mph - N/A   Clear
2:57 PM 40.8 °F 36.2 °F 28.4 °F 61% 29.46 in 10.0 mi ESE 6.9 mph - N/A   Mostly Cloudy
3:16 PM 41.2 °F 36.6 °F 28.6 °F 61% 29.46 in 10.0 mi ESE 6.9 mph - N/A   Mostly Cloudy
3:37 PM 41.5 °F 36.4 °F 28.8 °F 60% 29.46 in 10.0 mi SE 8.1 mph - N/A   Scattered Clouds
3:57 PM 41.7 °F 36.7 °F 28.6 °F 60% 29.47 in 10.0 mi East 8.1 mph - N/A   Scattered Clouds
4:17 PM 40.6 °F 33.4 °F 28.4 °F 62% 29.46 in 10.0 mi ESE 12.7 mph - N/A   Clear
4:37 PM 40.1 °F 33.2 °F 28.4 °F 63% 29.45 in 10.0 mi ESE 11.5 mph - N/A   Clear
4:57 PM 39.6 °F 31.7 °F 29.1 °F 66% 29.45 in 10.0 mi East 13.8 mph - N/A   Scattered Clouds
5:17 PM 40.1 °F 34.1 °F 28.9 °F 64% 29.47 in 10.0 mi ESE 9.2 mph - N/A   Scattered Clouds
5:37 PM 39.4 °F 33.2 °F 28.9 °F 66% 29.48 in 10.0 mi SE 9.2 mph - N/A   Clear
5:57 PM 38.8 °F 32.1 °F 28.4 °F 66% 29.48 in 10.0 mi East 10.4 mph - N/A   Clear
6:17 PM 37.9 °F 30.9 °F 28.9 °F 70% 29.49 in 10.0 mi East 10.4 mph - N/A   Mostly Cloudy
6:37 PM 37.8 °F 30.7 °F 28.8 °F 70% 29.49 in 10.0 mi ESE 10.4 mph - N/A   Mostly Cloudy
6:57 PM 36.5 °F 28.7 °F 29.7 °F 76% 29.50 in 10.0 mi ESE 11.5 mph - N/A   Scattered Clouds
7:17 PM 35.8 °F 27.3 °F 29.7 °F 78% 29.49 in 10.0 mi East 12.7 mph 19.6 mph N/A   Mostly Cloudy
7:37 PM 35.1 °F 27.4 °F 29.1 °F 79% 29.52 in 10.0 mi East 10.4 mph - N/A   Mostly Cloudy
7:57 PM 34.3 °F 25.9 °F 28.9 °F 81% 29.52 in 10.0 mi East 11.5 mph - N/A   Mostly Cloudy
8:17 PM 34.2 °F 25.2 °F 28.4 °F 79% 29.52 in 10.0 mi East 12.7 mph 18.4 mph N/A   Scattered Clouds
8:37 PM 33.4 °F 24.3 °F 28.4 °F 82% 29.53 in 10.0 mi East 12.7 mph - N/A   Scattered Clouds
8:57 PM 33.4 °F 24.3 °F 28.4 °F 82% 29.54 in 10.0 mi East 12.7 mph - N/A   Overcast
9:17 PM 33.3 °F 24.6 °F 28.2 °F 82% 29.55 in 10.0 mi East 11.5 mph 17.3 mph N/A   Overcast
9:37 PM 33.3 °F 24.6 °F 28.0 °F 81% 29.56 in 10.0 mi East 11.5 mph 17.3 mph N/A   Overcast
9:57 PM 33.3 °F 25.7 °F 28.0 °F 81% 29.57 in 10.0 mi East 9.2 mph - N/A   Overcast
10:17 PM 33.3 °F 25.1 °F 27.9 °F 81% 29.58 in 10.0 mi East 10.4 mph - N/A   Overcast
10:37 PM 33.1 °F 24.4 °F 28.2 °F 82% 29.59 in 10.0 mi East 11.5 mph - N/A Snow Light Snow
10:57 PM 32.5 °F 24.2 °F 28.8 °F 86% 29.59 in 7.0 mi East 10.4 mph - N/A Snow Light Snow
11:17 PM 32.0 °F 24.8 °F 29.1 °F 89% 29.59 in 10.0 mi ENE 8.1 mph - N/A   Overcast
11:37 PM 32.2 °F 23.8 °F 28.6 °F 87% 29.60 in 10.0 mi East 10.4 mph - N/A   Overcast
11:57 PM 32.0 °F 23.6 °F 28.8 °F 88% 29.59 in 7.0 mi East 10.4 mph - N/A Snow Light Snow